KE0TRL Weather Reports


Display with metric or nautical units.
time (UTC)temp
F
wind
direction
speed
MPH
gust
MPH
rain 1hr
in
rain 24hr
in
rain mn
in
humidity
%
barometer
mb
20260905095002 77 225 0.0 0.0 0.00 0.00 0.00 80 1010.5
20260905093902 77 248 2.0 2.0 0.00 0.00 0.00 80 1010.5
20260905091402 77 158 0.0 0.0 0.00 0.00 0.00 81 1010.5
20260905090103 77 158 0.0 0.0 0.00 0.00 0.00 81 1010.5
20260905085102 77 158 0.0 0.0 0.00 0.00 0.00 81 1010.5
20260905083902 77 180 0.0 0.0 0.00 0.00 0.00 81 1010.8
20260905082502 77 158 0.0 0.0 0.00 0.00 0.00 81 1010.8
20260905075902 78 113 0.0 0.0 0.00 0.00 0.00 81 1010.8
20260905074402 78 0 0.0 0.0 0.00 0.00 0.00 80 1010.8
20260905072002 79 158 0.0 0.0 0.00 0.00 0.00 79 1011.2
20260905070902 79 158 0.0 0.0 0.00 0.00 0.00 79 1011.2
20260905065702 79 158 0.0 0.0 0.00 0.00 0.00 79 1011.2
20260905064602 79 158 0.0 0.0 0.00 0.00 0.00 80 1011.2
20260905063502 79 158 0.0 0.0 0.00 0.00 0.00 81 1011.5
20260905062402 80 158 0.0 0.0 0.00 0.00 0.00 81 1011.2
20260905055702 80 158 0.0 0.0 0.00 0.00 0.00 79 1011.5
20260905054502 81 135 0.0 0.0 0.00 0.00 0.00 79 1011.5
20260905053402 81 158 0.0 0.0 0.00 0.00 0.00 79 1011.2
20260905052306 81 158 0.0 0.0 0.00 0.00 0.00 78 1011.2
20260905050103 82 158 0.0 1.0 0.00 0.00 0.00 76 1011.2
20260905045305 82 158 0.0 0.0 0.00 0.00 0.00 76 1011.2
20260905043903 82 90 0.0 0.0 0.00 0.00 0.00 76 1010.8
20260905042802 82 135 0.0 0.0 0.00 0.00 0.00 76 1010.8
20260905041703 83 158 0.0 0.0 0.00 0.00 0.00 75 1010.8
20260905035402 84 158 1.0 1.0 0.00 0.00 0.00 75 1010.5
20260905034203 84 113 0.0 0.0 0.00 0.00 0.00 75 1010.8
20260905032802 84 158 0.0 1.0 0.00 0.00 0.00 74 1010.5
20260905031702 84 135 0.0 0.0 0.00 0.00 0.00 74 1010.5
20260905030202 85 158 0.0 0.0 0.00 0.00 0.00 75 1010.5
20260905024403 85 158 0.0 0.0 0.00 0.00 0.00 75 1010.5
20260905023303 85 158 0.0 0.0 0.00 0.00 0.00 76 1010.2
20260905022202 85 158 0.0 0.0 0.00 0.00 0.00 78 1010.2
20260905021102 85 158 0.0 0.0 0.00 0.00 0.00 76 1010.2
20260905020003 86 158 0.0 0.0 0.00 0.00 0.00 75 1010.2
20260905014402 87 158 0.0 0.0 0.00 0.00 0.00 73 1009.8
20260905013102 88 158 0.0 0.0 0.00 0.00 0.00 70 1009.8
20260905011903 89 158 0.0 0.0 0.00 0.00 0.00 68 1009.5
20260905010803 89 158 0.0 0.0 0.00 0.00 0.00 65 1009.8
20260905005702 90 158 0.0 0.0 0.00 0.00 0.00 65 1009.5
20260905004103 91 158 0.0 1.0 0.00 0.00 0.00 65 1009.5
20260905003002 92 158 0.0 0.0 0.00 0.00 0.00 63 1009.5
20260905000503 93 135 0.0 0.0 0.00 0.00 0.00 63 1009.5
20260904235305 93 158 0.0 0.0 0.00 0.00 0.00 61 1009.1
20260904233903 93 158 0.0 2.0 0.00 0.00 0.00 59 1009.5
20260904232702 94 158 2.0 2.0 0.00 0.00 0.00 56 1009.5
20260904230402 96 158 2.0 2.0 0.00 0.00 0.00 55 1009.5
20260904223902 96 158 4.0 4.0 0.00 0.00 0.00 55 1009.5
20260904221702 96 113 3.0 3.0 0.00 0.00 0.00 55 1009.5
20260904220502 98 113 3.0 3.0 0.00 0.00 0.00 55 1009.1
20260904215002 97 158 4.0 4.0 0.00 0.00 0.00 51 1009.5
20260904212306 96 158 3.0 3.0 0.00 0.00 0.00 54 1009.1
20260904203202 96 158 3.0 3.0 0.00 0.00 0.00 54 1009.5
20260904202103 96 158 3.0 4.0 0.00 0.00 0.00 54 1009.5
20260904175502 90 135 3.0 3.0 0.00 0.00 0.00 63 1010.2
20260904173902 82 113 4.0 4.0 0.00 0.00 0.00 74 1010.5
20260904142903 82 158 2.0 2.0 0.00 0.00 0.00 74 1010.2
20260904124102 78 158 2.0 2.0 0.00 0.00 0.00 78 1009.5
20260904122502 77 158 1.0 2.0 0.00 0.00 0.00 78 1009.5
20260904115902 77 158 2.0 2.0 0.00 0.00 0.00 78 1009.1
20260904114602 78 158 1.0 1.0 0.00 0.00 0.00 76 1009.5
20260904113202 78 45 2.0 2.0 0.00 0.00 0.00 76 1009.1
20260904104902 81 45 2.0 2.0 0.00 0.00 0.00 70 1009.1
20260904101703 81 158 3.0 3.0 0.00 0.00 0.00 70 1009.1
20260904100402 81 158 2.0 2.0 0.00 0.00 0.00 70 1009.1